Location: Tr�vern
(48.0333°N, 4.6000°W)
Time: 02:52:30
(UTC+00:00)

Cosmos 2251 Rocket - Pass Details

Date: 14 July 2020
Orbit: 765 x 792 km, 74.0° (Epoch: 04 August)

Event Time Altitude Azimuth Distance (km) Brightness Sun altitude
Exits shadow 01:32:39 32° 225° (SW) 1,305 4.2 -18.7°
Maximum altitude 01:35:03 64° 296° (WNW) 851 3.7 -18.6°
Drops below altitude 10° 01:40:16 10° 18° (NNE) 2,317 7.3 -18.3°
Sets 01:42:41 0° 21° (NNE) 3,251 8.5 -18.2°
